#timestamp,LO_Frequency,Hit,StdDev 
1569722415.9,286046998.8,N
1569722435.7,286047001.0,N
1569722455.5,286047000.7,N
1569722475.4,286047000.3,N
1569722495.2,286047000.0,N
1569722515.1,286047000.6,N
1569722516.0,286047000.6,N
1569722535.8,286047002.8,N
1569722555.6,286047001.7,N
1569722575.5,286047002.0,N
1569722595.3,286046999.8,N
1569722615.1,286046998.6,N
1569722635.9,286046999.3,N
1569722655.7,286047000.8,N
1569722675.6,286047001.9,N
1569722695.4,286047002.5,N
1569722715.2,286047000.1,N
1569722735.1,286047000.4,N
1569722736.0,286047000.4,N
1569722755.8,286047000.1,N
1569722775.7,286047004.2,Y
1569722795.5,286047004.3,P
1569722815.3,286047002.1,N
1569722835.2,286046999.8,N
1569722855.0,286047000.6,N
1569722855.9,286047000.6,N
1569722875.7,286047000.1,N
1569722895.6,286047002.1,N
1569722915.4,286047002.3,N
1569722935.3,286047002.4,N
1569722955.1,286047000.3,N
1569722975.8,286047001.2,N
1569722995.7,286047001.5,N
1569723015.5,286047001.5,N
1569723035.4,286047000.3,N
1569723055.2,286046999.9,N
1569723075.0,286047002.8,N
1569723075.9,286047002.8,N
1569723095.8,286047002.5,N
1569723115.6,286047001.9,N
1569723135.4,286047000.1,N
1569723155.3,286046998.3,N
1569723175.1,286046998.2,N
1569723195.9,286047000.8,N
1569723215.7,286047001.9,N
1569723235.5,286047000.7,N
1569723255.4,286046998.2,N
1569723275.2,286047001.9,N
1569723295.1,286047000.1,N
1569723296.0,286047000.1,N
1569723315.8,286047000.6,N
1569723335.6,286047000.4,N
1569723355.5,286047000.5,N
1569723375.3,286046998.1,N
1569723395.1,286047000.8,N
1569723415.9,286046998.5,N
1569723435.7,286046999.3,N
1569723455.6,286046998.2,N
1569723475.4,286047001.1,N
1569723495.2,286046998.4,N
1569723515.1,286046999.1,N
1569723516.0,286046999.1,N
1569723535.8,286046999.9,N
1569723555.7,286047000.5,N
1569723575.5,286047000.1,N
1569723595.3,286047000.9,N
1569723615.2,286047002.3,N
1569723635.0,286047001.8,N
1569723635.9,286047001.8,N
1569723655.8,286047001.9,N
1569723675.6,286047001.1,N
1569723695.4,286046998.1,N
1569723715.3,286046998.7,N
1569723735.1,286046998.9,N
1569723755.8,286046999.4,N
1569723775.7,286046996.8,N
1569723795.5,286046996.8,N
1569723815.4,286046996.6,N
1569723835.2,286046999.5,N
1569723855.0,286046996.7,N
1569723855.9,286046996.7,N
1569723875.8,286046997.5,N
1569723895.6,286046997.7,N
1569723915.4,286046997.2,N
1569723935.3,286046997.0,N
1569723955.1,286046999.5,N
1569723975.9,286046998.5,N
1569723995.7,286047000.7,N
1569724015.5,286047000.9,N
1569724035.4,286047000.7,N
1569724055.2,286047000.8,N
1569724075.1,286047000.0,N
1569724076.0,286047000.0,N
1569724095.8,286047000.9,N
1569724115.6,286046999.9,N
1569724135.5,286047002.8,N
1569724155.3,286047002.0,N
1569724175.1,286047001.3,N
1569724195.9,286047006.0,Y
1569724215.7,286047007.1,P
1569724235.6,286047005.1,N
1569724255.4,286047003.6,N
1569724275.2,286047011.9,Y
1569724295.1,286047002.8,P
1569724296.0,286047002.8,P
1569724315.8,286047004.4,P
1569724335.7,286047001.5,N
1569724355.5,286047002.6,N
1569724375.3,286047002.8,Y
1569724395.2,286046999.0,P
1569724415.0,286046998.7,N
1569724415.9,286046998.7,N
1569724435.8,286046998.3,N
1569724455.6,286047000.5,N
1569724475.4,286046998.5,N
1569724495.3,286046998.7,N
1569724515.1,286046998.9,N
1569724535.8,286047000.6,N
1569724555.7,286047000.6,N
1569724575.5,286047000.7,N
1569724595.4,286047001.1,N
1569724615.2,286046998.3,N
1569724635.0,286046998.3,N
1569724635.9,286046998.3,N
1569724655.8,286046998.7,N
1569724675.6,286046998.4,N
1569724695.5,286046999.2,N
1569724715.3,286046997.0,N
1569724735.6,286046999.6,N
1569724755.4,286046997.8,N
1569724775.2,286046997.5,N
1569724795.1,286046999.0,N
1569724796.0,286046999.0,N
1569724815.8,286046999.1,N
1569724835.7,286046998.8,N
1569724855.5,286046999.2,N
1569724875.3,286046996.9,N
1569724895.2,286046998.8,N
1569724915.0,286046999.1,N
1569724915.9,286046999.1,N
1569724935.8,286046999.1,N
1569724955.6,286046998.4,N
1569724975.4,286046996.6,Y
1569724995.3,286046996.7,P
1569725015.1,286046996.9,N
1569725035.9,286046995.1,P
1569725055.7,286046994.2,Y
1569725075.5,286046995.9,P
1569725095.4,286046995.4,P
1569725115.2,286046995.1,P
1569725135.1,286046996.3,Y
1569725136.0,286046996.3,P
1569725155.8,286046999.2,P
1569725175.6,286046996.9,N
1569725195.5,286046997.9,N
1569725215.3,286046999.2,N
1569725235.2,286046996.9,N
1569725255.9,286046999.4,N
1569725275.7,286046996.9,N
1569725295.6,286046999.5,N
1569725315.4,286046996.9,N
1569725335.2,286046999.6,N
1569725355.1,286046998.3,N
1569725356.0,286046998.3,N
1569725375.8,286047000.3,N
1569725395.7,286047000.8,N
1569725415.5,286047000.6,N
1569725435.4,286047000.0,N
1569725455.2,286046998.5,N
1569725475.0,286046998.6,N
1569725475.9,286046998.6,N
1569725495.8,286046998.7,N
1569725515.6,286046998.1,N
1569725535.4,286046998.8,N
1569725555.3,286046998.9,N
1569725575.1,286046996.5,N
1569725595.9,286046997.2,N
1569725615.7,286046997.8,N
1569725635.5,286046995.7,Y
1569725655.4,286046996.5,P
1569725675.2,286046999.6,N
1569725695.1,286046996.5,N
1569725696.0,286046996.5,N
1569725715.8,286046997.7,N
1569725735.6,286046996.7,N
1569725755.8,286046998.8,N
1569725775.6,286046998.6,N
1569725795.5,286046998.4,N
1569725815.3,286046996.8,N
1569725835.1,286046999.6,N
1569725855.9,286046998.9,N
1569725875.7,286046999.0,N
1569725895.5,286047000.5,N
1569725915.4,286046998.2,N
1569725935.2,286046998.1,N
1569725955.1,286046998.6,N
1569725956.0,286046998.6,N
1569725975.8,286046998.4,N
1569725995.6,286047001.2,N
